Wind_Speed
5 4 4 4 4 4 3 3 3 3 3 2 1 1 1 2 3 4 6 6 6 7 8 8 9 9 10 10 11 12 13 14 14 15 15 16 16 17 17 18 18 18 18 18 18 18 18 18 18
5 5 4 4 5 4 3 3 3 4 3 3 3 2 2 3 3 4 6 7 7 7 8 8 9 10 10 11 11 12 13 14 14 15 16 16 17 18 18 18 18 19 19 19 19 19 19 19 19
4 4 4 4 4 3 2 2 3 4 4 4 4 3 3 3 4 5 6 7 8 8 9 9 10 10 11 12 12 13 13 14 15 15 16 17 18 18 19 19 19 20 20 20 20 20 20 20 20
4 4 4 4 3 3 3 3 3 4 4 5 5 4 4 4 5 5 6 8 9 9 10 10 11 12 13 13 14 14 15 15 16 16 17 18 19 19 19 20 20 20 20 20 21 21 21 21 21
5 5 5 4 4 4 4 4 4 4 4 5 5 5 6 6 6 6 7 8 10 10 11 11 12 13 14 15 16 16 16 17 17 18 18 19 19 20 20 20 21 21 21 21 22 22 22 22 22
6 6 5 5 5 5 5 4 4 4 5 5 6 6 8 8 8 8 8 9 11 12 12 12 13 13 14 15 16 17 17 18 18 19 19 19 20 20 21 21 22 22 22 23 23 23 23 24 24
8 7 7 7 7 7 6 6 6 6 6 7 7 8 9 9 10 10 9 10 12 13 13 13 14 14 15 15 16 17 18 18 19 19 19 20 20 21 22 22 23 23 24 24 25 25 25 25 25
9 9 9 8 8 8 8 8 7 8 8 9 9 10 10 11 11 11 11 11 13 14 14 15 15 16 16 17 17 17 18 19 19 20 20 21 22 23 23 24 24 25 25 26 26 26 27 27 27
11 11 10 9 9 9 9 9 9 10 10 11 11 12 12 12 13 13 13 13 13 14 15 16 16 17 17 17 18 19 19 20 20 21 21 22 23 24 24 25 25 26 26 27 27 28 28 28 29
12 12 12 11 11 11 11 11 11 11 11 12 12 13 13 13 14 14 15 14 15 15 16 17 17 18 18 18 19 20 21 21 22 22 23 23 24 25 26 26 27 27 28 28 29 29 30 30 31
13 14 13 13 13 12 12 12 12 12 13 13 13 14 15 15 15 16 16 16 16 16 17 17 18 18 19 19 20 20 21 22 23 23 24 24 25 26 27 27 28 29 29 29 30 30 31 32 32
15 15 15 14 14 14 13 13 13 13 13 14 14 14 15 16 16 17 17 17 16 16 17 18 18 19 19 20 20 21 21 22 23 24 24 25 26 26 27 28 29 29 30 30 31 32 32 33 34
16 16 16 15 15 15 14 14 13 13 14 14 14 14 15 16 16 16 17 17 17 17 17 18 18 19 20 20 21 21 22 22 23 24 25 26 26 27 28 28 29 30 30 31 32 33 33 34 35
17 17 17 17 16 16 15 15 14 15 14 14 15 15 16 16 16 17 17 18 18 18 18 18 19 19 20 20 21 22 22 23 24 24 25 26 27 27 28 29 30 31 31 32 33 34 34 35 36
18 18 18 18 17 16 16 16 15 15 15 15 16 16 16 17 17 17 18 18 18 18 19 19 19 20 20 21 22 22 23 24 24 25 26 26 27 27 28 29 30 31 31 32 33 34 35 35 36
19 19 19 18 18 17 17 17 16 16 16 16 17 17 17 17 17 18 18 18 18 19 19 20 20 21 21 22 22 23 24 24 25 26 26 27 27 28 29 29 31 31 32 34 35 36 36 37 38
19 19 19 19 18 18 18 17 17 17 17 17 17 17 18 18 18 18 18 19 19 19 20 20 21 21 22 23 23 23 24 25 26 27 28 28 29 30 30 32 33 34 35 36 37 38 38 39 40
20 20 20 20 20 19 18 18 18 18 17 17 17 17 18 18 18 18 18 19 20 20 20 21 22 22 23 23 24 24 25 26 27 28 29 30 31 32 33 34 35 36 37 38 39 40 41 42 43
21 21 21 21 21 20 19 18 18 18 17 17 17 17 18 18 19 19 19 19 20 20 21 22 22 23 24 24 25 26 27 28 29 30 30 31 32 34 35 36 37 38 39 40 42 43 44 45 47
22 22 22 23 23 21 20 18 18 18 17 17 17 18 18 18 19 19 19 20 21 21 22 22 23 24 25 26 27 28 29 30 31 32 33 34 35 36 38 39 40 41 42 43 45 46 47 48 49
23 23 24 24 23 23 21 18 19 19 18 17 18 18 18 19 19 19 20 21 21 22 23 24 24 25 26 28 29 30 31 32 33 34 35 37 38 39 40 41 42 44 45 46 47 49 50 51 52
24 25 26 25 24 23 22 20 18 20 19 18 18 19 19 19 20 20 21 22 22 23 24 25 26 27 28 30 31 32 33 34 35 36 38 39 40 42 43 44 45 46 48 49 51 52 53 55 55
25 26 27 26 25 24 23 23 17 20 19 19 19 19 19 20 20 21 22 23 24 25 26 27 28 29 30 32 33 34 35 36 37 39 40 41 43 44 45 46 48 50 51 53 54 55 57 58 59
26 27 28 28 27 25 24 24 18 19 20 20 20 20 21 21 21 22 23 24 25 26 27 28 30 31 32 34 35 36 37 38 39 41 42 44 45 46 48 49 51 52 54 55 56 58 60 61 62
26 27 28 29 28 26 25 25 20 20 21 21 21 21 22 22 22 23 24 25 27 28 29 31 32 33 34 35 36 38 39 40 42 43 44 46 47 48 50 52 53 55 56 57 59 60 62 64 65
27 27 28 29 28 26 26 25 22 21 22 22 22 23 23 23 24 24 26 27 28 30 31 33 34 35 36 37 38 40 41 43 44 46 47 48 49 50 52 54 55 57 58 60 61 63 64 66 67
27 28 29 30 29 28 27 25 23 22 23 24 24 24 24 24 25 26 28 29 30 31 33 34 36 37 38 39 40 42 44 45 46 47 49 50 52 53 55 56 58 59 61 62 64 65 66 68 68
29 29 29 30 30 30 27 25 25 24 25 25 25 25 25 26 27 28 30 31 32 33 35 36 37 38 40 41 43 45 46 47 48 50 51 52 54 56 57 59 60 62 64 65 66 67 69 69 70
29 29 29 30 31 31 30 26 25 26 27 27 27 27 27 28 29 30 32 33 34 35 36 38 39 40 42 43 45 47 48 49 51 52 54 55 57 59 60 61 63 65 66 67 68 69 70 71 72
30 29 29 30 30 32 32 27 25 28 29 29 29 29 29 30 31 32 33 34 36 37 38 39 41 42 44 46 47 49 50 52 53 55 56 58 60 61 63 64 66 67 68 69 70 71 72 74 75
Wind_Direction
11 12 13 13 13 26 37 51 64 68 62 48 38 360 302 281 274 267 264 262 261 263 266 269 272 275 277 278 278 277 276 276 275 274 272 271 271 270 270 270 270 270 270 270 270 269 268 268 267
0 359 7 14 16 19 23 38 52 51 43 33 29 17 338 313 294 281 274 270 270 270 271 272 275 277 278 279 280 280 279 277 276 274 272 271 270 270 270 269 269 269 269 269 268 268 268 267 267
348 350 356 8 17 10 16 31 40 37 30 23 15 2 339 314 304 291 283 279 277 275 276 276 277 278 278 279 279 279 279 278 277 275 273 272 271 271 271 270 269 269 268 267 267 267 267 267 267
326 332 340 347 353 342 339 1 19 20 16 10 4 356 339 322 314 300 289 286 283 281 280 279 278 278 278 279 278 278 278 278 277 277 275 273 272 272 271 270 269 268 267 267 267 267 267 267 267
308 314 320 328 322 321 325 342 355 2 359 353 348 344 330 323 317 310 300 291 287 285 284 283 281 279 279 278 277 277 277 277 277 277 276 274 273 272 271 271 270 269 268 267 267 267 267 267 266
294 297 302 307 307 310 313 323 332 336 336 332 333 331 320 317 315 311 304 295 291 291 290 289 286 282 280 279 279 278 277 276 276 276 276 274 273 272 271 270 270 269 269 268 268 267 266 265 265
284 287 289 291 295 298 304 309 313 315 315 317 320 320 313 312 311 310 306 299 295 293 293 292 290 287 284 282 281 280 279 278 277 276 275 273 272 272 271 270 269 270 270 269 269 268 267 266 265
281 279 282 286 289 291 292 295 298 300 303 307 309 310 307 306 306 304 303 300 296 293 291 290 289 287 285 284 283 282 280 279 278 277 276 274 273 273 272 271 271 271 271 270 270 269 269 268 268
278 276 279 282 283 284 284 286 291 294 298 302 304 305 305 304 302 302 301 299 297 294 292 290 289 288 287 286 285 283 281 280 278 276 275 275 274 273 272 272 271 271 270 270 269 269 268 268 268
275 274 274 275 277 279 280 283 287 290 293 296 299 301 303 303 302 302 301 299 298 296 294 292 291 289 288 287 286 284 282 280 279 278 277 276 275 274 274 274 273 273 272 271 271 270 270 269 269
273 272 271 271 273 276 279 281 284 287 290 294 297 299 301 301 301 302 301 301 300 298 296 294 293 291 289 288 288 287 285 283 281 280 279 278 277 277 276 276 275 275 274 274 273 273 272 271 271
271 271 270 268 269 272 275 279 283 286 289 293 296 298 298 298 299 300 300 301 301 299 297 296 294 293 292 291 290 289 288 286 285 283 281 280 279 278 277 277 277 276 275 274 274 274 273 272 271
268 268 268 266 267 269 272 277 281 284 287 292 295 296 297 298 299 299 299 300 300 299 297 296 294 292 292 291 291 290 290 288 287 285 284 282 280 279 278 278 277 277 276 275 274 274 273 273 273
266 267 267 266 265 266 269 273 278 281 285 289 292 294 295 297 299 299 298 298 298 298 297 296 295 294 293 293 292 291 290 289 287 286 285 283 282 281 280 279 279 278 278 277 277 276 276 275 274
265 265 265 264 263 264 269 272 275 279 283 286 289 291 293 295 297 297 297 297 298 297 297 296 295 295 295 294 293 293 291 290 289 288 286 285 283 282 281 281 281 280 280 279 279 278 277 277 276
265 265 265 265 265 266 268 270 275 279 282 284 287 288 290 292 294 295 296 297 297 297 297 297 296 296 296 295 294 293 293 292 290 289 287 286 285 284 283 282 281 280 280 280 279 279 278 277 277
264 263 264 265 265 266 267 269 273 278 281 282 284 286 288 290 292 294 295 296 297 298 298 297 297 297 296 296 295 294 293 292 291 290 289 288 286 285 283 283 282 282 281 281 280 280 279 279 278
263 262 263 265 265 265 267 269 272 275 278 280 281 283 286 288 291 293 294 295 296 297 298 298 298 298 297 296 295 295 294 293 292 291 290 289 288 286 286 285 285 284 283 283 282 281 281 280 279
261 262 264 265 266 266 267 268 272 275 277 277 279 281 283 286 289 291 293 294 296 297 298 299 298 298 298 297 296 295 295 295 294 293 292 291 290 289 288 288 287 286 286 285 284 284 284 283 282
261 263 264 264 267 267 266 268 273 275 276 276 277 279 281 284 287 289 292 294 295 296 297 298 298 298 298 298 297 297 296 295 295 294 293 292 291 291 290 289 289 288 288 287 287 286 286 285 285
259 262 264 265 267 268 268 269 273 274 276 276 277 279 281 283 285 288 291 293 294 295 297 297 298 298 298 298 298 297 296 295 294 294 293 293 293 293 292 292 291 291 290 289 289 288 287 287 287
259 262 264 265 266 269 271 271 272 275 276 275 276 278 280 282 285 288 290 292 293 295 296 297 298 298 298 298 297 297 296 295 295 294 294 294 294 293 293 293 292 291 291 291 290 290 289 289 288
259 262 263 264 266 268 271 273 272 275 274 274 276 278 280 282 285 288 290 291 293 294 296 297 298 298 298 297 297 297 296 296 295 295 294 294 294 293 293 293 293 293 292 292 292 291 291 291 290
258 260 263 265 267 268 269 274 273 272 273 275 277 279 281 283 285 288 290 291 293 294 295 296 297 298 298 297 297 297 296 296 296 295 295 295 294 294 293 294 294 294 293 293 293 293 293 292 292
258 260 264 266 267 269 270 271 273 272 272 274 277 280 281 284 286 288 290 292 293 294 295 297 297 298 298 298 297 297 297 297 297 296 296 295 295 295 295 295 295 295 295 294 294 294 294 293 293
257 259 263 267 268 268 269 271 273 274 274 276 278 280 282 285 288 289 290 292 293 295 296 296 297 298 298 298 298 298 298 298 298 298 297 297 296 296 296 296 296 296 296 296 296 296 295 294 294
256 259 262 264 267 268 268 271 273 274 275 277 278 280 283 286 289 290 291 293 294 295 296 296 297 298 298 298 298 299 299 299 299 299 298 298 297 297 297 297 297 297 297 297 297 297 296 296 295
257 258 260 263 267 268 269 271 275 275 276 277 279 282 285 288 290 291 292 293 294 295 296 297 298 298 298 299 299 299 299 300 300 300 300 299 299 299 299 299 299 299 299 299 298 298 297 297 297
256 257 260 263 266 269 271 272 276 278 278 279 281 284 287 289 290 291 292 294 295 296 297 298 298 298 299 299 300 300 300 300 300 300 301 301 301 300 300 300 300 301 300 300 299 299 299 298 298
255 257 259 263 267 269 272 275 277 278 279 280 283 285 287 288 290 291 292 294 295 297 297 298 298 299 299 300 300 301 301 301 301 301 302 302 302 301 302 302 302 302 301 301 301 300 300 299 299
Height
5880 5879 5879 5879 5880 5879 5878 5878 5877 5876 5876 5876 5876 5876 5876 5877 5877 5879 5877 5875 5876 5876 5875 5875 5875 5875 5875 5875 5875 5875 5875 5875 5874 5874 5874 5874 5874 5874 5874 5873 5873 5873 5872 5872 5871 5871 5871 5871 5871
5881 5880 5880 5880 5879 5879 5879 5878 5877 5876 5876 5876 5876 5876 5876 5875 5876 5875 5874 5874 5874 5874 5874 5874 5873 5873 5873 5873 5872 5872 5872 5872 5872 5872 5871 5871 5871 5871 5870 5870 5870 5869 5869 5868 5868 5867 5867 5867 5867
5881 5881 5881 5880 5879 5879 5879 5878 5877 5876 5876 5875 5875 5875 5875 5875 5875 5874 5873 5873 5872 5872 5872 5872 5871 5871 5871 5870 5870 5870 5870 5869 5869 5869 5868 5868 5868 5867 5867 5867 5866 5866 5865 5865 5864 5864 5863 5863 5863
5881 5881 5881 5881 5880 5879 5878 5877 5876 5876 5875 5875 5875 5875 5874 5874 5873 5873 5872 5871 5871 5870 5870 5869 5869 5869 5868 5868 5868 5867 5867 5866 5866 5865 5865 5864 5864 5864 5863 5863 5862 5862 5861 5861 5860 5860 5859 5859 5858
5880 5880 5880 5880 5879 5879 5878 5877 5876 5876 5875 5874 5874 5874 5873 5872 5872 5871 5871 5870 5869 5868 5867 5867 5867 5866 5866 5865 5865 5864 5864 5864 5863 5862 5862 5861 5860 5860 5859 5859 5858 5858 5857 5856 5856 5855 5855 5854 5854
5880 5880 5879 5879 5879 5878 5877 5876 5876 5875 5874 5874 5873 5872 5871 5871 5870 5870 5869 5868 5866 5866 5865 5864 5864 5863 5863 5862 5862 5861 5861 5860 5859 5859 5858 5857 5856 5856 5855 5854 5854 5853 5853 5852 5851 5851 5850 5850 5849
5879 5878 5878 5878 5878 5877 5877 5875 5875 5874 5873 5873 5872 5871 5870 5869 5868 5867 5867 5866 5864 5863 5862 5862 5861 5861 5860 5859 5858 5858 5857 5856 5856 5855 5854 5853 5853 5852 5851 5850 5849 5849 5848 5847 5846 5846 5845 5845 5844
5878 5878 5876 5876 5876 5876 5875 5874 5873 5872 5872 5871 5870 5869 5868 5867 5866 5865 5865 5864 5862 5861 5860 5859 5858 5858 5857 5856 5855 5854 5853 5853 5852 5851 5850 5849 5848 5847 5846 5846 5845 5844 5843 5842 5841 5841 5840 5839 5839
5876 5877 5875 5875 5875 5874 5873 5872 5872 5871 5870 5869 5868 5867 5866 5865 5864 5863 5862 5861 5860 5858 5857 5856 5855 5854 5853 5853 5852 5851 5850 5849 5848 5847 5846 5845 5844 5843 5842 5841 5840 5839 5838 5837 5836 5835 5834 5834 5833
5874 5874 5873 5873 5872 5872 5871 5870 5870 5869 5868 5867 5866 5864 5863 5862 5861 5860 5859 5858 5857 5856 5854 5853 5852 5851 5850 5849 5848 5847 5846 5844 5843 5843 5842 5840 5839 5838 5837 5836 5835 5834 5833 5832 5831 5830 5829 5828 5827
5871 5871 5871 5870 5870 5869 5869 5868 5867 5866 5865 5864 5863 5862 5861 5859 5858 5857 5855 5855 5854 5852 5851 5849 5848 5847 5846 5845 5844 5843 5841 5840 5839 5838 5837 5836 5834 5833 5832 5831 5830 5828 5827 5826 5825 5824 5823 5822 5821
5869 5868 5868 5867 5867 5866 5866 5865 5865 5864 5863 5862 5860 5859 5858 5856 5855 5854 5852 5851 5850 5849 5848 5846 5845 5843 5842 5841 5840 5838 5837 5836 5834 5833 5832 5830 5829 5828 5826 5825 5824 5822 5821 5820 5819 5817 5816 5815 5814
5865 5865 5865 5864 5864 5863 5863 5862 5862 5861 5860 5858 5857 5856 5855 5853 5852 5850 5849 5848 5847 5846 5844 5843 5841 5840 5838 5837 5835 5834 5832 5831 5830 5828 5827 5825 5824 5822 5820 5819 5817 5816 5814 5813 5812 5810 5809 5808 5806
5862 5862 5861 5861 5860 5860 5860 5859 5859 5858 5857 5855 5854 5853 5851 5850 5849 5847 5846 5844 5843 5842 5841 5839 5838 5836 5834 5833 5831 5829 5828 5826 5824 5823 5821 5820 5818 5816 5814 5813 5811 5809 5808 5806 5805 5803 5802 5800 5799
5858 5858 5858 5857 5857 5856 5857 5856 5855 5854 5853 5852 5851 5849 5848 5846 5845 5844 5842 5840 5839 5838 5836 5835 5834 5832 5830 5829 5827 5825 5823 5821 5819 5817 5816 5814 5812 5810 5809 5807 5805 5803 5801 5799 5797 5795 5794 5792 5790
5854 5855 5855 5854 5854 5853 5855 5853 5852 5850 5850 5848 5847 5846 5844 5843 5841 5840 5838 5837 5835 5834 5832 5831 5829 5827 5826 5824 5822 5820 5818 5816 5814 5812 5810 5808 5806 5804 5802 5800 5798 5796 5794 5792 5790 5788 5786 5784 5782
5850 5851 5850 5850 5850 5849 5849 5849 5848 5847 5846 5845 5843 5842 5840 5839 5837 5836 5834 5833 5831 5829 5828 5826 5824 5823 5821 5819 5817 5815 5812 5810 5808 5806 5804 5802 5800 5797 5795 5793 5790 5788 5786 5784 5781 5779 5777 5775 5773
5846 5846 5846 5846 5845 5845 5845 5845 5844 5843 5842 5841 5839 5838 5836 5835 5833 5832 5830 5828 5827 5825 5823 5821 5819 5817 5815 5813 5811 5809 5807 5805 5802 5800 5797 5795 5793 5790 5788 5785 5783 5780 5778 5775 5772 5770 5767 5765 5762
5841 5841 5841 5841 5841 5841 5840 5840 5839 5838 5838 5836 5835 5834 5832 5831 5829 5827 5825 5824 5822 5820 5818 5816 5814 5812 5810 5808 5806 5803 5801 5798 5796 5793 5790 5788 5785 5782 5780 5777 5774 5771 5768 5765 5762 5759 5757 5754 5750
5836 5836 5836 5836 5835 5835 5836 5836 5834 5833 5833 5832 5831 5829 5828 5826 5824 5822 5821 5819 5817 5815 5813 5811 5809 5807 5804 5802 5799 5797 5794 5792 5789 5786 5783 5780 5777 5774 5771 5768 5765 5762 5759 5755 5752 5748 5745 5742 5738
5831 5831 5831 5831 5830 5830 5830 5831 5830 5828 5828 5827 5826 5824 5823 5821 5820 5818 5816 5814 5812 5810 5808 5806 5803 5801 5798 5796 5793 5790 5787 5784 5781 5778 5775 5772 5768 5765 5762 5758 5755 5751 5748 5744 5740 5736 5733 5730 5726
5825 5825 5825 5825 5825 5825 5825 5825 5826 5823 5823 5822 5821 5819 5818 5816 5814 5812 5810 5809 5806 5804 5802 5800 5797 5795 5792 5789 5786 5783 5780 5777 5774 5770 5767 5763 5759 5755 5752 5748 5744 5740 5736 5732 5728 5724 5720 5716 5712
5820 5819 5819 5819 5819 5820 5819 5819 5822 5819 5817 5817 5816 5814 5813 5811 5809 5807 5805 5803 5801 5798 5796 5793 5791 5788 5785 5782 5779 5775 5772 5769 5765 5762 5758 5754 5750 5745 5741 5737 5733 5729 5724 5720 5715 5711 5706 5701 5696
5814 5814 5813 5813 5813 5815 5814 5813 5816 5814 5812 5811 5810 5809 5807 5805 5803 5801 5799 5797 5795 5792 5789 5787 5784 5781 5778 5774 5771 5767 5764 5760 5756 5752 5748 5744 5740 5735 5730 5726 5721 5716 5711 5707 5701 5696 5691 5685 5680
5808 5809 5808 5807 5807 5809 5808 5807 5810 5808 5807 5805 5805 5803 5801 5799 5797 5795 5793 5791 5788 5785 5782 5779 5776 5773 5769 5766 5762 5758 5755 5751 5747 5742 5738 5734 5729 5724 5719 5714 5709 5703 5698 5692 5687 5681 5676 5669 5664
5802 5803 5803 5802 5802 5802 5801 5801 5804 5803 5800 5799 5798 5797 5795 5793 5791 5789 5786 5784 5781 5778 5775 5772 5768 5765 5761 5757 5753 5749 5745 5741 5736 5731 5727 5722 5717 5712 5707 5701 5696 5690 5684 5678 5672 5666 5659 5653 5646
5796 5796 5796 5795 5794 5795 5796 5796 5797 5796 5794 5793 5792 5790 5788 5786 5784 5782 5779 5776 5773 5770 5767 5763 5760 5756 5752 5748 5743 5739 5735 5730 5725 5720 5715 5710 5705 5699 5694 5688 5682 5675 5669 5662 5656 5649 5642 5635 5629
5790 5790 5789 5788 5788 5788 5789 5790 5790 5789 5788 5786 5785 5783 5781 5779 5777 5774 5771 5768 5765 5762 5758 5755 5751 5747 5742 5738 5734 5729 5724 5719 5714 5709 5703 5697 5692 5686 5680 5673 5667 5660 5653 5646 5638 5631 5624 5617 5610
5783 5783 5783 5782 5782 5782 5782 5786 5784 5782 5780 5779 5778 5776 5774 5772 5769 5766 5763 5760 5757 5753 5749 5746 5742 5737 5733 5728 5723 5718 5713 5707 5702 5696 5690 5684 5678 5672 5665 5658 5651 5644 5636 5628 5621 5613 5606 5598 5590
5775 5777 5776 5777 5776 5774 5774 5780 5777 5774 5772 5771 5770 5768 5767 5764 5762 5758 5755 5752 5748 5744 5740 5736 5732 5727 5722 5717 5712 5707 5701 5695 5689 5683 5677 5670 5664 5657 5649 5642 5634 5627 5619 5610 5602 5595 5587 5578 5570